Probability
0 0 0 0 0 0 0 0 0 0 0 0 0 0 0 0 0 0 0 0 0 0 0 0 0 0 0 0 0 0 0 0 0 0 0 0 0 0 0 0 0 0 0 0
0 0 0 0 0 0 0 0 0 0 0 0 0 0 0 0 0 0 0 0 0 0 0 0 0 0 0 0 0 0 0 0 0 0 0 0 0 0 0 0 0 0 0 0
0 0 0 0 0 0 0 0 0 0 0 0 0 0 0 0 0 0 0 0 0 0 0 0 0 0 0 0 0 0 0 0 0 0 0 0 0 0 0 0 0 0 0 0
0 0 0 0 0 0 0 0 0 0 0 0 0 0 0 0 0 0 0 0 0 0 0 0 0 0 0 0 0 0 0 0 0 0 0 0 0 0 0 0 0 0 0 0
0 0 0 0 0 0 0 0 0 0 0 0 0 0 0 0 0 0 0 0 0 0 0 0 0 0 0 0 0 0 0 0 0 0 0 0 0 0 0 0 0 0 0 0
0 0 0 0 0 0 0 0 0 0 0 0 0 0 0 0 0 0 0 0 0 0 0 0 0 0 0 0 0 0 0 0 0 0 0 0 0 0 0 0 0 0 0 0
0 0 0 0 0 0 0 0 0 0 0 0 0 0 0 0 0 0 0 0 0 0 0 0 0 0 0 0 0 0 0 0 0 0 0 0 0 0 0 0 0 0 0 0
0 0 0 0 0 0 0 0 0 0 0 0 0 0 0 0 0 0 0 0 0 0 0 0 0 0 0 0 0 0 0 0 0 0 0 0 0 0 0 0 0 0 0 1
0 0 0 0 0 0 0 0 0 0 0 0 0 0 0 0 0 0 0 0 0 0 0 0 0 0 0 0 0 0 0 0 0 0 0 0 0 0 0 0 0 0 1 2
0 0 0 0 0 0 0 0 0 0 0 0 0 0 0 0 0 0 0 0 0 0 0 0 0 0 0 0 0 0 0 0 0 0 0 0 0 0 0 0 0 0 1 2
0 0 0 0 0 0 0 0 0 0 0 0 0 0 0 0 0 0 0 0 0 0 0 0 0 0 0 0 0 0 0 0 0 0 0 0 0 0 0 0 0 0 0 1
1 1 0 0 0 0 0 0 0 0 0 0 0 0 0 0 0 0 0 0 0 0 0 0 0 0 0 0 0 0 0 0 0 0 0 0 0 0 0 0 0 0 0 0
2 1 0 0 0 0 0 0 0 0 0 0 0 0 0 0 0 0 0 0 0 0 0 0 0 0 0 0 0 0 0 0 0 0 0 0 0 0 0 0 0 0 0 0
2 1 0 0 0 0 0 0 0 0 0 0 0 0 0 0 0 0 0 0 0 0 0 0 0 0 0 0 0 0 0 0 0 0 0 0 0 0 0 0 0 0 0 0
1 0 0 0 0 0 0 0 0 0 0 0 0 0 0 0 0 0 0 0 0 0 0 0 0 0 0 0 0 0 0 0 0 0 0 0 0 0 0 0 0 0 0 0
0 0 0 0 0 0 0 0 0 0 0 0 0 0 0 0 0 0 0 0 0 0 0 0 0 0 0 0 0 0 0 0 0 0 0 0 0 0 0 0 0 0 0 0
0 0 0 0 0 0 0 0 0 0 0 0 0 0 0 0 0 0 0 0 0 0 0 0 0 0 0 0 0 0 0 0 0 0 0 0 0 0 0 0 0 0 0 0
0 0 0 0 0 0 0 0 0 0 0 0 0 0 0 0 0 0 0 0 0 0 0 0 0 0 0 0 0 0 0 0 0 0 0 0 0 0 0 0 0 0 0 0
0 0 0 0 0 0 0 0 0 0 0 0 0 0 0 0 0 0 0 0 0 0 0 0 0 0 0 0 0 0 0 0 0 0 0 0 0 0 0 0 0 0 0 0
0 0 0 0 0 0 0 0 0 0 0 0 0 0 0 0 0 0 0 0 0 0 0 0 0 0 0 0 0 0 0 0 0 0 0 0 0 0 0 0 0 0 0 0
0 0 0 0 0 0 0 0 0 0 0 0 0 0 0 0 0 0 0 0 0 0 0 0 0 0 0 0 0 0 0 0 0 0 0 0 0 0 0 0 0 0 0 0
0 0 0 0 0 0 0 0 0 0 0 0 0 0 0 0 0 0 0 0 0 0 0 0 0 0 0 0 0 0 0 0 0 0 0 0 0 0 0 0 0 0 0 0
0 0 0 0 0 0 0 0 0 0 0 0 0 0 0 0 0 0 0 0 0 0 0 0 0 0 0 0 0 0 0 0 0 0 0 0 0 0 0 0 0 0 0 0
0 0 0 0 0 0 0 0 0 0 0 0 0 0 0 0 0 0 0 0 0 0 0 0 0 0 0 0 0 0 0 0 0 0 0 0 0 0 0 0 0 0 0 0
0 0 0 0 0 0 0 0 0 0 0 0 0 0 0 0 0 0 0 0 0 0 0 0 0 0 0 0 0 0 0 0 0 0 0 0 0 0 0 0 0 0 0 0
0 0 0 0 0 0 0 0 0 0 0 0 0 0 0 0 0 0 0 0 0 0 0 0 0 0 0 0 0 0 0 0 0 0 0 0 0 0 0 0 0 0 0 0
Wind_Speed
12 11 17 21 21 14 12 14 15 11 7 10 15 18 18 14 13 15 15 14 14 15 14 11 11 12 13 14 16 17 17 16 14 11 11 11 11 10 10 10 12 14 13 14
12 21 22 17 16 14 14 15 15 8 5 8 12 18 19 18 18 17 18 17 16 15 14 12 12 12 13 15 16 17 18 17 17 14 12 10 11 10 11 10 12 15 15 15
23 13 16 16 17 18 19 19 16 9 4 6 8 17 20 19 17 17 18 18 18 17 17 15 13 13 13 15 17 15 18 18 19 18 12 9 9 8 10 12 12 15 16 15
20 14 14 18 20 20 19 17 14 11 8 7 8 13 17 15 17 18 18 18 18 17 17 16 14 14 14 15 15 16 17 18 18 18 15 17 14 14 15 13 12 14 16 16
15 18 19 21 20 19 11 10 12 13 12 10 10 12 14 10 17 17 17 17 17 17 16 16 15 14 14 13 13 14 16 17 18 18 19 18 17 15 12 13 15 15 14 16
12 10 17 17 15 14 8 7 7 8 8 14 17 15 16 13 16 15 14 14 15 15 14 14 13 12 12 11 11 12 14 16 17 18 19 20 21 19 17 16 14 13 11 12
13 11 8 9 13 14 13 10 7 9 10 13 12 14 16 12 14 15 15 14 13 12 12 12 12 11 10 10 10 11 13 15 16 18 19 20 21 21 20 18 16 14 12 12
17 15 16 13 17 16 21 19 12 10 10 9 9 16 14 8 10 12 13 13 11 11 10 10 10 10 9 9 9 10 12 14 14 16 18 18 20 16 14 18 15 14 13 13
16 14 11 13 11 15 17 18 13 6 2 6 9 11 13 7 10 12 12 12 12 11 9 9 9 10 10 9 9 9 11 12 13 14 16 16 18 17 17 16 16 14 13 11
9 10 9 10 8 12 13 12 8 10 9 12 12 15 12 8 11 11 10 10 10 9 8 9 9 9 8 8 8 8 10 11 12 12 13 12 15 16 16 15 15 15 14 13
10 9 9 11 16 18 15 15 11 8 8 9 11 12 8 10 9 8 7 8 8 8 8 8 8 8 8 7 7 8 8 10 10 11 11 12 13 14 15 14 15 14 13 13
12 8 8 11 6 10 15 17 17 12 10 10 11 13 3 6 5 4 5 5 6 7 7 8 8 8 8 7 7 7 8 8 9 9 10 11 11 12 13 14 14 13 13 13
13 9 8 7 6 7 12 15 18 13 8 8 11 13 3 4 4 4 5 6 6 7 8 8 8 8 8 8 7 7 7 7 7 7 8 9 10 11 12 13 13 12 12 12
11 8 12 16 11 13 15 17 18 17 11 12 17 19 12 8 7 6 6 7 8 9 9 9 9 9 8 8 7 7 7 6 6 6 7 8 9 9 10 10 10 10 11 11
9 9 9 8 6 10 13 17 20 21 19 16 18 22 21 14 12 10 9 9 10 10 10 10 10 9 9 8 8 7 7 6 5 6 6 7 7 7 7 7 8 8 8 9
8 7 8 7 8 9 10 15 19 21 21 20 19 22 19 15 12 11 10 9 10 11 11 11 10 10 9 9 8 7 7 6 4 5 6 5 5 5 5 5 5 6 6 7
9 7 8 8 7 6 13 18 20 19 18 18 22 23 15 13 13 13 11 10 11 12 12 11 10 9 9 9 8 8 7 5 4 5 4 4 4 4 4 4 4 5 6 6
11 8 4 5 7 13 11 9 17 19 20 19 18 16 14 13 11 8 8 8 10 11 11 11 9 9 9 8 7 7 5 5 4 5 4 3 4 4 3 3 4 5 4 4
9 9 6 6 8 9 7 7 12 16 16 14 16 16 14 10 8 9 5 6 8 9 9 10 9 9 9 8 6 5 5 4 4 5 4 4 4 4 4 4 5 4 3 4
6 7 6 6 8 11 8 5 6 8 11 7 9 11 10 6 9 7 5 8 9 9 8 9 9 9 8 7 5 4 5 4 5 5 5 4 4 4 5 5 4 2 3 3
10 7 9 9 8 9 4 4 9 11 7 2 4 6 5 6 7 8 9 9 9 9 9 9 9 8 8 7 5 5 5 6 6 5 4 4 4 4 4 3 2 2 3 3
14 11 10 8 9 11 4 8 9 3 3 2 0 1 3 5 7 8 9 9 9 9 9 8 8 8 8 6 5 6 6 6 5 5 4 4 3 3 2 2 2 3 3 3
10 9 7 9 8 2 5 5 3 3 2 2 2 4 5 6 7 9 9 9 8 8 9 7 7 8 7 6 5 7 7 6 5 4 4 4 3 2 2 3 3 3 3 4
3 2 4 4 4 3 4 4 4 4 3 2 3 4 5 7 9 10 9 8 8 8 7 7 6 7 7 6 5 6 7 6 4 5 4 3 2 2 1 1 2 3 3 4
4 5 4 4 2 3 2 2 3 3 3 3 4 5 6 8 9 9 8 8 8 8 7 6 6 7 8 7 6 6 6 5 5 5 4 3 2 2 1 1 1 1 1 2
2 4 6 5 4 4 3 2 2 2 3 4 6 6 6 6 8 9 8 7 7 8 7 7 6 7 7 7 7 7 6 5 4 4 4 3 2 2 1 1 1 3 2 3
Wind_Direction
179 195 207 207 210 226 221 218 223 227 205 211 234 248 254 251 249 252 251 250 250 251 255 249 237 226 221 218 216 215 213 211 207 206 207 210 214 215 216 218 219 218 216 212
188 214 216 213 210 214 217 224 227 227 204 225 248 255 257 254 250 251 252 252 252 254 253 247 241 230 221 219 217 217 216 213 209 210 209 213 215 218 219 217 220 220 219 216
210 212 203 202 204 211 220 224 224 217 187 224 266 263 251 248 245 249 250 252 254 253 254 252 243 235 229 225 220 217 216 214 212 211 210 210 215 220 217 218 219 219 219 218
216 208 190 198 207 207 222 220 222 213 214 230 225 266 254 247 247 244 246 246 249 249 249 251 249 243 234 230 225 222 220 217 214 210 211 209 210 216 219 219 219 218 216 218
207 200 197 205 207 205 217 201 209 218 229 244 226 254 262 243 250 247 244 244 245 248 249 250 250 250 247 239 230 225 223 220 216 211 213 214 219 224 226 221 222 220 216 217
215 205 206 212 205 200 175 167 198 219 229 241 232 236 261 236 243 250 247 245 246 249 251 253 255 255 254 246 234 229 225 224 219 214 214 217 220 223 224 222 221 220 219 217
205 204 196 190 184 187 188 183 194 204 216 236 222 227 250 243 236 243 250 252 252 252 254 256 257 256 256 252 240 232 228 229 223 218 218 219 223 224 225 225 224 222 220 219
195 202 196 192 198 194 200 203 208 215 223 227 203 231 249 242 240 244 253 260 262 260 260 263 267 266 264 259 249 239 234 234 228 223 223 223 224 225 228 228 226 224 223 223
195 204 189 196 199 196 199 212 222 236 239 244 224 244 261 243 243 241 246 254 258 262 268 271 272 270 268 265 256 245 241 239 234 229 227 226 224 226 229 230 228 229 229 227
196 191 185 186 184 210 210 189 187 205 213 232 238 239 242 215 221 229 238 248 260 269 275 279 279 278 277 274 269 257 246 244 241 235 230 228 227 227 230 232 231 230 231 227
192 184 172 178 196 197 193 199 199 203 218 229 245 246 236 232 220 226 238 252 266 278 285 289 291 292 288 283 275 267 258 252 246 240 235 231 230 229 229 231 232 232 232 228
193 190 197 203 210 220 208 207 201 208 211 223 244 255 176 208 216 232 258 272 283 288 290 294 298 300 297 292 286 277 270 260 253 246 240 237 235 233 231 231 232 231 231 229
173 173 180 196 207 202 212 212 211 215 216 216 230 250 191 205 233 250 271 292 299 299 301 304 306 305 304 302 295 287 279 271 263 254 246 240 236 234 234 234 234 231 231 230
172 188 207 215 205 190 203 209 211 213 219 226 233 249 248 249 261 271 280 289 295 299 301 305 304 303 303 301 298 293 288 281 269 257 248 243 238 236 237 237 235 232 230 230
177 195 209 227 209 191 206 210 211 218 224 232 241 247 255 259 269 278 283 289 293 297 301 303 302 301 302 302 301 297 291 286 272 258 252 250 246 242 239 237 235 231 228 229
179 186 189 206 206 205 217 216 215 220 225 234 247 255 259 263 265 268 273 280 286 291 296 298 298 298 297 298 299 297 294 291 274 261 259 259 250 242 237 236 233 227 226 225
174 163 176 203 196 204 229 220 217 221 223 227 239 249 256 257 254 260 273 281 285 291 297 299 297 295 297 297 295 292 293 293 275 265 264 258 248 243 242 235 226 224 223 220
168 162 163 163 167 221 232 216 217 226 231 230 239 251 258 264 268 271 279 285 291 298 302 303 304 302 302 303 303 304 305 295 281 272 268 261 252 248 242 229 231 232 219 212
177 163 162 182 211 242 257 215 202 212 231 233 239 249 260 274 275 264 273 293 294 300 303 304 306 304 304 306 313 311 306 301 292 284 276 264 247 239 230 229 231 228 212 212
171 170 164 180 204 224 231 186 190 191 235 227 231 246 261 271 261 271 344 331 319 316 314 314 313 310 306 312 321 308 302 301 290 288 285 282 262 239 232 229 224 215 203 205
172 179 192 198 219 243 243 166 163 192 224 158 215 240 254 246 264 306 322 314 312 313 315 318 318 314 313 323 321 300 299 293 297 301 294 286 271 252 245 234 207 185 182 176
180 182 192 190 213 233 169 160 188 200 74 92 86 317 297 283 292 300 305 306 312 315 319 322 319 316 324 332 321 303 300 309 315 304 294 287 276 262 239 212 200 178 176 179
195 191 183 196 211 103 136 144 99 69 94 38 1 339 322 304 304 310 310 310 314 315 316 319 315 314 324 334 326 304 309 319 314 302 293 292 288 274 237 210 201 189 184 192
196 148 167 191 203 156 136 105 75 60 53 27 357 332 321 309 310 312 312 314 316 318 319 320 319 316 319 328 326 313 315 317 308 297 296 292 282 279 268 227 211 208 202 199
171 171 177 201 161 132 156 116 77 47 33 4 342 327 321 315 311 312 313 315 317 318 322 323 318 313 314 321 323 326 324 324 310 300 296 293 283 269 271 262 240 224 252 208
176 183 192 202 170 186 181 107 31 16 352 342 330 322 326 321 313 314 311 316 319 320 321 320 319 317 318 323 324 327 330 323 308 302 303 298 291 284 258 232 58 65 81 81